Location: Aubonne
(46.4960°N, 6.3915°E)
Time: 20:19:54
(UTC+00:00)

Daily predictions for brighter satellites

Satellite Brightness Start Highest point End
(mag) Time Altitude Azimuth Time Altitude Azimuth Time Altitude Azimuth
SMAP 3.1 16:49:07 10° SSE 16:53:45 81° ENE 16:58:26 10° NNW
Cosmos 1726 Rocket 3.6 16:50:58 10° N 16:55:18 60° ENE 16:59:39 10° SSE
Cosmos 1818 4.1 16:51:46 10° S 16:56:48 41° ESE 17:01:53 10° NE
Meteor 2-5 Rocket 3.8 16:51:22 10° SSW 16:56:55 83° W 17:02:30 10° N
ADEOS Rocket 4.2 16:51:44 10° N 16:57:18 41° WNW 17:02:29 10° SW
Cosmos 1943 4.3 16:52:34 10° NW 16:58:03 51° WSW 17:03:28 10° S
ISS -3.2 16:55:00 10° SW 16:58:15 49° SSE 17:01:33 10° ENE
CZ-2C R/B 3.9 16:55:23 10° SE 17:00:10 33° ENE 17:05:09 10° N
RESURS DK-1 4.3 16:57:18 10° WSW 17:00:47 26° NW 17:04:17 10° N
H-2A R/B 2.7 16:57:02 10° S 17:01:05 79° WSW 17:05:20 10° NNW
YAOGAN 6 4.2 16:57:58 10° S 17:01:21 40° W 17:04:47 10° NNW
Cosmos 1833 Rocket 4.2 17:00:50 10° N 17:04:08 16° NE 17:07:26 10° ENE
BREEZE-M DEB (TANK) 4.0 17:02:35 10° WNW 17:06:29 36° SW 17:08:42 10° SSE
CZ-4C R/B 3.8 17:02:06 10° W 17:06:41 27° NNW 17:12:02 10° NNE
Okean 1-7 Rocket 4.1 17:03:19 10° SSE 17:07:33 39° E 17:11:49 10° NNE
Cosmos 1777 Rocket 4.0 17:04:05 10° SSW 17:09:21 85° ESE 17:14:41 10° NNE
Cosmos 1538 Rocket 3.9 17:04:36 10° NNW 17:09:48 78° ENE 17:14:58 10° SSE
Cosmos 1626 3.9 17:06:44 10° SW 17:10:06 33° WNW 17:13:29 10° N
Cosmos 1844 4.3 17:06:41 10° S 17:11:52 39° ESE 17:17:08 10° NE
Cosmos 2082 Rocket 4.0 17:10:14 10° N 17:12:22 12° NNE 17:14:29 10° NE
Helios 1A Rocket 4.4 17:12:01 10° ESE 17:14:46 17° ENE 17:17:32 10° NNE
NOSS 3-1 (C) 4.4 17:09:39 10° NNW 17:16:30 44° NE 17:24:27 10° ESE
CREW DRAGON DEMO-1 DEB 2.7 17:15:14 10° WNW 17:18:07 65° NNE 17:20:53 11° ESE
Meteor 1-24 Rocket 3.9 17:13:29 10° SSW 17:18:47 69° WNW 17:24:06 10° N
COSMO-SKYMED 1 3.0 17:15:55 10° NNE 17:20:02 40° E 17:24:08 10° SSE
Meteor 2-10 Rocket 3.5 17:15:07 10° N 17:20:37 75° ENE 17:25:52 10° SSE
Cosmos 1844 Rocket 2.8 17:18:33 10° S 17:24:06 59° ESE 17:29:40 10° NNE
Cosmos 2279 Rocket 4.5 17:24:42 10° NNW 17:30:55 67° W 17:37:06 10° S
NOSS 2-1 (C) 4.3 17:31:12 10° S 17:33:52 22° ESE 17:34:56 19° E
USA 229 DEB 4.3 17:28:21 10° NNW 17:35:08 42° NE 17:41:51 12° ESE
USA 229 4.3 17:28:28 10° NNW 17:35:14 41° NE 17:41:51 12° ESE
CZ-4B R/B 1.3 17:32:17 10° NNE 17:35:38 66° ESE 17:38:52 10° S
Cosmos 1939 Rocket 3.0 17:35:06 10° S 17:39:13 79° WSW 17:43:18 10° NNW
NOSS 2-1 (D) 4.1 17:36:53 10° S 17:39:44 25° ESE 17:40:41 22° E
Cosmos 2278 Rocket 3.7 17:38:13 10° SE 17:41:28 16° E 17:41:32 16° E
Aureole 3 2.7 17:38:34 10° N 17:41:53 58° E 17:44:50 10° SSE
OE (NEXTSAT) 4.3 17:39:38 10° W 17:43:05 85° S 17:44:59 25° E
Cosmos-2242 4.4 17:40:52 10° NNE 17:43:16 19° NE 17:43:16 19° NE
Okean O Rocket 3.0 17:39:51 10° S 17:44:04 42° W 17:48:18 10° NNW
SKYMED 3 4.5 17:39:46 10° NNE 17:44:08 73° ESE 17:48:28 10° S
Cosmos 1602 Rocket 4.0 17:41:37 10° SSE 17:45:36 37° E 17:49:39 10° NNE
Okean-O 2.8 17:42:21 10° SE 17:46:35 46° ENE 17:50:50 10° N
H-2A R/B 3.3 17:42:36 10° N 17:46:49 43° WNW 17:50:55 10° SW
TELKOM 3 3.4 17:45:10 10° W 17:47:26 48° NNW 17:48:01 37° NE
ATLAS 5 CENTAUR R/B 3.5 17:44:45 10° W 17:48:03 21° NNW 17:51:42 10° NNE
CSL-04 Rocket 4.3 17:43:20 10° SE 17:48:10 34° ENE 17:53:05 10° N
Feng Yun 1-1 Rocket 4.3 17:44:11 10° SSE 17:49:37 84° WSW 17:55:14 10° NNW
Cosmos 44 3.6 17:45:25 10° S 17:49:58 47° ESE 17:53:00 21° NE
YAOGAN 1 2.7 17:46:04 10° SE 17:50:12 47° ENE 17:54:22 10° N
NOSS 3-1 (A) 4.3 17:43:48 10° NNW 17:50:42 45° NE 17:57:05 16° ESE
X-37B 0.9 17:48:31 10° WSW 17:51:39 55° SSE 17:52:52 32° ESE
Cosmos 158 Rocket 4.0 17:47:32 10° NNW 17:52:55 89° NE 17:58:19 10° SSE
Aureole 2 Rocket 3.4 17:50:21 10° SW 17:53:14 39° WNW 17:56:12 10° N
ATLAS 2AS CENTAUR R/B 4.4 17:49:55 10° WNW 17:56:29 27° NNW 18:02:52 10° NE
MOS 1 Rocket 2.9 17:52:26 10° NNE 17:56:45 76° ESE 18:01:02 10° S
CZ-4 R/B 1.3 17:53:43 10° SSE 17:57:46 65° ENE 18:01:45 10° N
CZ-2D R/B 3.5 17:54:51 10° S 17:58:41 71° WSW 18:02:32 10° NNW
Meteor 1-21 Rocket 4.1 17:54:26 10° S 17:59:57 79° E 18:05:32 10° NNE
SJ 16-02 1.6 17:56:18 10° SSW 18:00:41 71° WNW 18:05:05 10° NNE
COSMOS 2455 3.6 17:55:02 10° SW 18:00:53 52° NW 18:06:48 10° NNE
SL-08 RB Rocket 4.4 18:01:08 29° ENE 18:01:16 29° ENE 18:05:08 10° N
CZ-3B R/B 2.0 18:01:06 10° NW 18:03:44 65° NE 18:08:40 17° ESE
Cosmos 1812 Rocket 3.5 17:59:29 10° N 18:03:51 56° ENE 18:08:07 10° SSE
PSLV R/B 3.9 18:00:28 11° NNE 18:04:29 61° ESE 18:08:39 10° S
SKYMED 2 4.0 18:03:50 10° N 18:08:10 64° WNW 18:12:26 10° SSW
Cosmos 923 Rocket 4.3 18:05:56 10° NNW 18:11:16 72° WSW 18:16:32 10° SSE
Cosmos 1455 3.0 18:07:47 10° NNW 18:11:31 52° W 18:15:15 10° S
Cosmos 1340 2.6 18:07:55 10° S 18:11:36 57° E 18:12:36 41° NE
ERS-2 2.0 18:11:58 18° NNE 18:14:39 85° WNW 18:18:17 10° SSW
Cosmos 1898 Rocket 3.4 18:10:10 10° S 18:15:22 64° ESE 18:18:37 23° NNE
Cosmos 1092 Rocket 3.9 18:09:20 10° S 18:15:31 79° E 18:21:42 10° N
Cosmos 2263 Rocket 4.5 18:12:00 10° W 18:15:53 18° NW 18:19:47 10° N
Cosmos 1689 Rocket 2.4 18:17:18 53° S 18:17:18 53° S 18:19:34 10° S
Iridium 4 Rocket 3.5 18:11:25 10° N 18:17:02 67° E 18:22:08 10° SSE
USA 234 4.0 18:14:03 25° ENE 18:17:02 38° N 18:22:58 10° NW
Cosmos 1680 Rocket 3.5 18:12:15 10° NNW 18:17:31 83° WSW 18:22:43 10° SSE
ARGOS 3.0 18:16:23 10° SSE 18:21:41 66° ENE 18:27:02 10° N
Cosmos 2344 4.3 18:14:02 10° NW 18:23:09 68° NE 18:35:28 11° SE
H-2A R/B 1.9 18:18:22 10° SSE 18:23:23 88° WSW 18:28:34 10° NNW
Meteor 1-27 4.4 18:22:14 10° N 18:27:36 44° ENE 18:28:17 42° E
Lacrosse 5 3.3 18:23:01 10° WNW 18:27:36 36° SW 18:32:11 10° SSE
Cosmos 2098 Rocket 4.3 18:21:50 10° S 18:28:58 68° E 18:36:18 10° NNE
CZ-2C R/B 2.9 18:29:46 39° ENE 18:31:10 48° E 18:36:34 10° S
NOSS 2-1 (E) 3.2 18:31:23 10° SW 18:34:09 60° SW 18:34:09 60° SW
ISS -2.8 18:31:53 10° W 18:34:48 42° NW 18:34:48 42° NW
Cosmos 1703 4.1 18:34:09 10° SSW 18:37:55 49° WNW 18:40:54 15° N
CSL-04 Debris 4.1 18:35:21 10° SSE 18:40:44 87° WSW 18:46:11 10° NNW
COSMOS 2406 3.1 18:36:28 10° NNW 18:42:17 71° ENE 18:44:01 46° SE
Cosmos 1937 Rocket 3.4 18:40:33 10° SSW 18:45:51 85° ESE 18:47:28 46° NNE
Cosmos 1833 Rocket 2.5 18:43:32 10° NNW 18:49:10 69° ENE 18:49:44 64° E
Helios 1A Rocket 3.7 18:45:31 10° S 18:49:33 51° W 18:53:37 10° NNW
Meteor 2-19 Rocket 4.3 18:44:53 10° S 18:51:02 85° E 18:57:15 10° N
USA 281 4.5 18:58:07 24° NNE 18:58:07 24° NNE 19:01:38 10° N
CZ-4C R/B 4.4 18:53:28 10° NW 18:57:31 18° N 18:59:07 16° NNE
Cosmos 2082 Rocket 2.9 18:52:27 10° NNW 18:56:34 39° NNE 18:56:34 39° NNE
Cosmos 1417 Rocket 4.3 18:57:07 10° N 19:03:21 81° E 19:06:53 28° SSE
Cosmos 1758 Rocket 4.1 19:01:11 10° SSW 19:05:34 58° WNW 19:05:48 57° WNW
Cosmos 2026 Rocket 4.5 19:00:06 10° SSW 19:06:07 58° WNW 19:12:16 10° N
Cosmos 1553 Rocket 4.0 19:00:55 10° N 19:07:21 84° W 19:13:42 10° S
NOSS 3-1 (C) 4.4 19:00:23 10° NW 19:07:52 64° WSW 19:15:32 14° SSE
Cosmos 1844 Rocket 4.5 19:03:36 10° WSW 19:08:23 27° NW 19:12:26 13° N
USA 267 3.8 19:26:06 43° S 19:26:06 43° S 19:30:48 10° SSW
Cosmos 2278 Rocket 2.6 19:19:05 10° SSW 19:23:28 55° SW 19:23:28 55° SW
USA 229 DEB 4.2 19:19:16 10° NW 19:26:31 64° WSW 19:29:23 40° S
USA 229 4.2 19:19:22 10° NW 19:26:37 65° WSW 19:29:24 41° S
X-37B 4.2 19:25:01 10° W 19:25:09 11° W 19:25:09 11° W
S3M 4.2 19:24:45 10° N 19:29:53 63° NNW 19:29:53 63° NNW
ATLAS 5 CENTAUR R/B 4.4 19:33:00 10° NNW 19:33:42 11° NNW 19:33:42 11° NNW
SJ 16-02 4.4 19:39:42 10° NW 19:40:08 10° NW 19:40:35 10° NW
NOSS 3-1 (A) 4.4 19:34:36 10° NW 19:42:05 62° WSW 19:44:37 45° S
ATLAS 2AS CENTAUR R/B 4.5 19:44:28 10° NW 19:50:11 22° N 19:50:17 22° N
USA 234 4.0 20:01:24 46° NNW 20:01:24 46° NNW 20:05:57 10° NW
CZ-2C R/B 4.4 20:11:15 29° WNW 20:11:15 29° WNW 20:15:58 10° WSW
